Location: Unspecified
(41.4057°N, 2.1753°E)
Time: 00:54:33
(UTC+01:00)

ISS - Visible Passes

Search period start: 25 March 2017 00:00
Search period end: 04 April 2017 01:00
Orbit: 399 x 409 km, 51.6° (Epoch: 25 March)

Date Brightness Start Highest point End Pass type
(mag) Time Alt. Az. Time Alt. Az. Time Alt. Az.
26 Mar -2.0 21:05:27 10° S 21:07:25 16° SE 21:07:25 16° SE visible
27 Mar -4.0 21:47:59 10° SW 21:51:06 72° SSE 21:51:06 72° SSE visible
28 Mar -3.2 20:55:52 10° SSW 20:58:52 36° SE 21:01:46 11° ENE visible
28 Mar -1.6 22:32:26 10° W 22:34:28 26° WNW 22:34:28 26° WNW visible
29 Mar -3.0 21:39:40 10° WSW 21:42:50 49° NNW 21:44:52 20° NE visible
30 Mar -3.8 20:47:07 10° SW 20:50:22 89° NNW 20:53:39 10° NE visible
30 Mar -1.5 22:24:42 10° WNW 22:27:12 20° NNW 22:27:43 19° N visible
31 Mar -1.8 21:31:43 10° W 21:34:33 27° NNW 21:37:24 10° NE visible
31 Mar -0.3 23:10:01 10° NW 23:10:22 11° NNW 23:10:22 11° NNW visible
01 Apr -2.6 20:38:51 10° WSW 20:41:57 41° NNW 20:45:05 10° NE visible
01 Apr -1.2 22:17:02 10° NW 22:19:05 15° N 22:20:12 13° NNE visible
02 Apr -1.3 21:23:57 10° WNW 21:26:20 18° NNW 21:28:42 10° NNE visible
02 Apr -0.6 23:01:54 10° NNW 23:02:35 12° NNW 23:02:35 12° NNW visible
03 Apr -1.1 22:09:10 10° NW 22:10:57 14° N 22:12:14 12° NNE visible
